Overview Statistics Trail Chart Weather Telemetry Raw packets
 

This is the latest recevied weather packets stored in our database for station/object K6CEG. If no packets are shown the sender has not sent any weather packets the latest 10 day(s).

<< 34 35 36 37 38 39 40 >>
Time Temp. Humidity Pressure Rain* Wind** Luminosity Snow
1788447891 20.56° C 68% 1016.5 hPa 0 mm - 122 W/m² -
1788447586 20.56° C 68% 1016.5 hPa 0 mm - 111 W/m² -
1788447281 19.44° C 71% 1016.6 hPa 0 mm - 102 W/m² -
1788446976 18.89° C 72% 1016.4 hPa 0 mm - 75 W/m² -
1788446675 18.89° C 73% 1016.4 hPa 0 mm - 49 W/m² -
1788446371 18.89° C 73% 1016.4 hPa 0 mm - 37 W/m² -
1788446067 18.89° C 73% 1016.3 hPa 0 mm - 29 W/m² -
1788445763 18.89° C 73% 1016.3 hPa 0 mm - 28 W/m² -
1788445458 18.33° C 73% 1016.4 hPa 0 mm - 29 W/m² -
1788445154 18.33° C 74% 1016.4 hPa 0 mm - 33 W/m² -
1788444850 18.33° C 74% 1016.4 hPa 0 mm - 32 W/m² -
1788444546 18.33° C 74% 1016.2 hPa 0 mm - 25 W/m² -
1788444241 18.33° C 74% 1016.2 hPa 0 mm - 19 W/m² -
1788443936 18.33° C 75% 1016.2 hPa 0 mm - 14 W/m² -
1788443632 18.33° C 75% 1016 hPa 0 mm - 10 W/m² -
1788443330 17.78° C 75% 1015.8 hPa 0 mm - 6 W/m² -
1788443026 17.78° C 75% 1016.2 hPa 0 mm - 4 W/m² -
1788442723 17.78° C 75% 1016.1 hPa 0 mm - 2 W/m² -
1788442420 17.78° C 75% 1016.2 hPa 0 mm - 2 W/m² -
1788442120 17.78° C 75% 1016 hPa 0 mm - 1 W/m² -
1788441816 17.78° C 75% 1016.3 hPa 0 mm - 0 W/m² -
1788441515 17.78° C 75% 1016 hPa 0 mm - 0 W/m² -
1788441210 17.78° C 75% 1016 hPa 0 mm - 0 W/m² -
1788440909 17.78° C 75% 1016.1 hPa 0 mm - 0 W/m² -
1788440604 17.78° C 75% 1016.2 hPa 0 mm - 0 W/m² -

* Rain latest hour (hover to see other rain measurements)
** Current wind speed in m/s (hover to see current wind gust speed)